Regional Weather Roundup
Issued by NWS

Home | Current Version | Previous Version | Graphics & Text | Print | Product List | Glossary On
Versions: 1 2 3 4 5 6 7 8 9 10 11 12 13 14 15 16 17 18 19 20 21 22 23 24 25 26 27 28 29 30 31 32 33 34 35 36 37 38 39 40 41 42 43 44 45 46 47 48 49 50
000
ASUS43 KIND 301359
RWRIN

WEATHER ROUNDUP FOR INDIANA
NATIONAL WEATHER SERVICE INDIANAPOLIS IN
1000 AM EDT SAT MAY 30 2015

NOTE: "FAIR" INDICATES FEW OR NO CLOUDS BELOW 12,000 FEET WITH NO
SIGNIFICANT WEATHER AND/OR OBSTRUCTIONS TO VISIBILITY.

* - STATION DOES NOT REPORT WEATHER SUCH AS PRECIPITATION OR FOG.

+ - STATION NOT QUALITY CONTROLLED BY THE NATIONAL WEATHER SERVICE.
    USE DATA WITH CAUTION...ESPECIALLY DEWPOINT AND RELATIVE
    HUMIDITY OBSERVATIONS.

INZ001>003-010>013-019-020-301500-
NORTHWEST INDIANA

CITY           SKY/WX    TMP DP  RH WIND       PRES   REMARKS
GARY /AIRPORT/ LGT RAIN  70  68  94 CALM      30.01R
RENSSELAER +   CLOUDY    70  70 100 CALM      30.01S

$$

LMZ046-743>745-301500-
SOUTHERN LAKE MICHIGAN

STATION/POSITION TIME  TEMP    WIND        PRES    WAVE
                       AIR SEA DIR/SP/G            HT
                 (UTC) (F)     (DEG/KT/KT) (MB)    (FT)
BURNS HARBOR     1300   69     190/  6/  7 1016.3S
MICHIGAN CITY    1300   68     180/  5/  6   N/A
5NW MICH CITY    1300   62 57  210/  6/  6   N/A     1

$$

INZ004-005-014>016-021>024-301500-
NORTH CENTRAL INDIANA

CITY           SKY/WX    TMP DP  RH WIND       PRES   REMARKS
ELKHART        CLOUDY    70  68  94 W6        30.02R
GOSHEN         CLOUDY    73  66  78 SW10      30.01S
PERU/GRISSOM   PTSUNNY   74  67  77 SW6       30.01S
SOUTH BEND     PTSUNNY   71  67  87 SW5       30.01R

$$

INZ006>009-017-018-025>027-301500-
NORTHEAST INDIANA

CITY           SKY/WX    TMP DP  RH WIND       PRES   REMARKS
ANGOLA *+      CLOUDY    75  68  78 W8        30.02S
FORT WAYNE     PTSUNNY   76  65  68 W8        30.03S

$$

INZ028-029-035-036-043>045-051>053-301500-
WEST CENTRAL INDIANA

CITY           SKY/WX    TMP DP  RH WIND       PRES   REMARKS
CRAWFORDSVL +  CLOUDY    71  64  78 W3        30.02S HAZE
GREENCASTLE +  MOSUNNY   77  64  65 S6        30.02S
LAFAYETTE      CLOUDY    69  67  93 CALM      30.01S
TERRE HAUTE    MOSUNNY   76  69  79 SW12      30.00S

$$

INZ030>032-037>040-046>048-054>057-064-065-301500-
CENTRAL INDIANA

CITY           SKY/WX    TMP DP  RH WIND       PRES   REMARKS
ANDERSON       MOSUNNY   75  64  69 S10       30.05S
INDIANAPOLIS   PTSUNNY   77  67  71 S13       30.01F
-EAGLE CREEK   MOSUNNY   76  68  76 S6        30.02S
KOKOMO *+      PTSUNNY   73  64  73 SW6       30.03S
MT COMFORT *+  MOSUNNY   77  63  61 SW9       30.04S
SHELBYVILLE    SUNNY     78  68  71 S14       30.04S

$$

INZ033-034-041-042-049-050-058-059-301500-
EAST CENTRAL INDIANA

CITY           SKY/WX    TMP DP  RH WIND       PRES   REMARKS
MUNCIE         PTSUNNY   76  68  76 SW9       30.04S

$$

INZ060-061-067>069-081>083-085>088-301500-
SOUTHWEST INDIANA

CITY           SKY/WX    TMP DP  RH WIND       PRES   REMARKS
EVANSVILLE     MOSUNNY   77  68  73 S13       30.02R
HUNTINGBURG *+ SUNNY     75  68  78 S15       30.03S

$$

INZ062-063-066-070>080-084-089>092-301500-
SOUTH CENTRAL AND SOUTHEAST INDIANA

CITY           SKY/WX    TMP DP  RH WIND       PRES   REMARKS
BLOOMINGTON    SUNNY     78  67  68 SW8       30.03S
MADISON *+     SUNNY     77  63  61 S12       30.09F
SEYMOUR +      MOSUNNY   81  66  61 S10       30.05S

$$




USA.gov is the U.S. government's official web portal to all federal, state and local government web resources and services.